Asyut, Egypt

11:58 AM EET on July 26, 2017 (GMT +0200)
Asyut

Weather History for HEAT - December, 2013

Change the Weather History Date:

Friday, December 13, 2013

  Actual Average Record
Temperature  
Mean Temperature 52 °F -  
Max Temperature 61 °F 68 °F - ()
Min Temperature 42 °F 42 °F - ()
Degree Days  
Heating Degree Days 14    
Growing Degree Days 2 (Base 50)    
Moisture  
Dew Point 39 °F    
Average Humidity 62    
Maximum Humidity 87    
Minimum Humidity 31    
Precipitation  
Precipitation 0.00 in 0.00 in - ()
Sea Level Pressure  
Sea Level Pressure 30.14 in    
Wind  
Wind Speed 12 mph ()    
Max Wind Speed 24 mph    
Max Gust Speed -    
Visibility 6.1 miles    
Events      
T = Trace of Precipitation, MM = Missing Value Source: Averaged Metar Reports

Daily Weather History Graph

Daily Weather History Graph

Search for Another Location

Airport or City:

Trip Planner

Search our weather history database for the weather conditions in past years. The results will help you decide how hot, cold, wet, or windy it might be!

Date:

Astronomy

Dec. 13, 2013 Rise Set
Actual Time 6:36 AM EET 5:03 PM EET
Civil Twilight 6:10 AM EET 5:29 PM EET
Nautical Twilight 5:41 AM EET 5:58 PM EET
Astronomical Twilight 5:13 AM EET 6:26 PM EET
Moon 2:21 PM EET (12/13) 2:54 AM EET (12/13)
Length of Visible Light 11h 18m
Length of Day
10h 27m
Waxing Gibbous, 86% of the Moon is Illuminated
Dec 13
Waxing Gibbous
Dec 17
Full
Dec 25
Last Quarter
Jan 1
New
Jan 8
First Quarter

Hourly Weather History & Observations

Time (EET) Temp. Windchill Dew Point Humidity Pressure Visibility Wind Dir Wind Speed Gust Speed Precip Events Conditions
12:00 AM 46.4 °F 40.4 °F 41.0 °F 81% 30.12 in - West 13.8 mph - N/A   Clear
1:00 AM 46.4 °F 40.4 °F 39.2 °F 76% 30.12 in - West 13.8 mph - N/A   Clear
2:00 AM 46 °F - 38 °F 65% 30.13 in 6 mi WSW 10.4 mph - -  
2:00 AM 46.4 °F 41.5 °F 37.4 °F 71% 30.09 in - WSW 10.4 mph - N/A   Clear
3:00 AM 44.6 °F 39.7 °F 37.4 °F 76% 30.09 in 6.2 mi West 9.2 mph - N/A   Scattered Clouds
4:00 AM 44.6 °F 40.7 °F 37.4 °F 76% 30.09 in 6.2 mi WNW 6.9 mph - N/A   Mostly Cloudy
5:00 AM 44.6 °F 38.4 °F 39.2 °F 81% 30.09 in - SW 12.7 mph - N/A   Clear
6:00 AM 42.8 °F 37.5 °F 39.2 °F 87% 30.09 in - WNW 9.2 mph - N/A   Clear
7:00 AM 42.8 °F 37.5 °F 39.2 °F 87% 30.09 in - WNW 9.2 mph - N/A   Clear
8:00 AM 45 °F - 35 °F 56% 30.15 in 6 mi SSW 12.7 mph - -  
8:00 AM 44.6 °F 38.4 °F 33.8 °F 66% 30.12 in - SSW 12.7 mph - N/A   Clear
9:00 AM 48.2 °F - 33.8 °F 58% 30.12 in - WSW 21.9 mph - N/A   Clear
10:00 AM 50.0 °F - 35.6 °F 58% 30.15 in - West 24.2 mph - N/A   Clear
11:00 AM 55 °F - 38 °F 41% 30.16 in 6 mi West 23.0 mph - -   Partly Cloudy
12:00 PM 57.2 °F - 37.4 °F 48% 30.15 in 6.2 mi West 23.0 mph - N/A   Scattered Clouds
1:00 PM 59.0 °F - 39.2 °F 48% 30.12 in 6.2 mi West 23.0 mph - N/A   Scattered Clouds
2:00 PM 60 °F - 38 °F 31% 30.11 in 6 mi West 23.0 mph - -   Partly Cloudy
2:00 PM 60.8 °F - 37.4 °F 42% 30.12 in 6.2 mi West 23.0 mph - N/A   Scattered Clouds
3:00 PM 60.8 °F - 37.4 °F 42% 30.12 in 6.2 mi West 21.9 mph - N/A   Mostly Cloudy
4:00 PM 59.0 °F - 37.4 °F 45% 30.12 in 6.2 mi West 23.0 mph - N/A   Mostly Cloudy
5:00 PM 57 °F - 39 °F 40% 30.14 in 6 mi West 20.7 mph - -   Mostly Cloudy
6:00 PM 53.6 °F - 39.2 °F 58% 30.15 in 6.2 mi West 16.1 mph - N/A   Mostly Cloudy
7:00 PM 53.6 °F - 39.2 °F 58% 30.15 in 6.2 mi West 16.1 mph - N/A   Mostly Cloudy
8:00 PM 53 °F - 42 °F 56% 30.20 in 6 mi West 6.9 mph - -   Mostly Cloudy
8:00 PM 51.8 °F - 42.8 °F 71% 30.18 in 6.2 mi West 6.9 mph - N/A   Mostly Cloudy
9:00 PM 50.0 °F - 42.8 °F 76% 30.18 in 6.2 mi West 3.5 mph - N/A   Scattered Clouds
10:00 PM 50.0 °F - 42.8 °F 76% 30.18 in 6.2 mi West 3.5 mph - N/A   Scattered Clouds
11:00 PM 49 °F - 40 °F 61% 30.23 in 6 mi WSW 8.1 mph - -  
11:00 PM 48.2 °F - 39.2 °F 71% 30.18 in - WSW 8.1 mph - N/A   Clear